Simultaneous Nadir Overpasses (SNOs) Predictions

Prediction of SNOs between AQUA and NOAA-19 Satellite Orbit:

Table of predicted SNOs for the next 14.0 days since TLE Epoch: 9/14/2024
Index Date (AQUA) Time (AQUA) Lat,Lon (AQUA) SZA (AQUA ) Date (NOAA-19) Time (NOAA-19) Lat,Lon (NOAA-19) SZA (NOAA-19 ) Distance(km) Time Diff (sec)
1 09/15/2024 08:28:14 -75.64,-127.44 107.22 09/15/2024 08:27:39 -75.65,-127.44 107.22 0.60 35
2 09/15/2024 09:17:37 75.69, 40.07 72.84 09/15/2024 09:18:31 75.70, 40.01 72.86 1.79 54
3 09/17/2024 11:27:42 -75.39,-171.55 106.65 09/17/2024 11:26:32 -75.31,-173.19 106.74 47.14 70
4 09/17/2024 12:17:10 75.69, -4.77 73.66 09/17/2024 12:17:17 75.67, -4.74 73.64 2.78 7
5 09/19/2024 15:16:39 75.66, -49.50 74.46 09/19/2024 15:16:02 75.66, -49.40 74.46 2.83 37
6 09/19/2024 16:06:00 -75.71, 117.99 105.48 09/19/2024 16:07:06 -75.70, 117.96 105.49 2.13 66
7 09/21/2024 18:16:03 75.54, -93.99 75.17 09/21/2024 18:14:51 75.44, -94.74 75.07 23.68 72
8 09/21/2024 19:05:26 -75.70, 73.22 104.67 09/21/2024 19:05:51 -75.67, 73.25 104.69 2.82 25
9 09/23/2024 22:04:48 -75.65, 28.56 103.89 09/23/2024 22:04:35 -75.67, 28.61 103.86 2.83 13
10 09/23/2024 22:54:12 75.77,-164.15 76.25 09/23/2024 22:55:24 75.83,-163.58 76.32 16.63 72
11 09/26/2024 01:04:07 -75.62, -16.14 103.09 09/26/2024 01:03:19 -75.65, -16.10 103.06 3.20 48



Historial Predications of SNOs between AQUA and NOAA-19
